Location: Unspecified
(48.8656°N, 0.0000°E)
Time: 13:55:47
(UTC+00:00)

Vanguard 1 - Pass Details

Date: 19 June 2019
Orbit: 655 x 3829 km, 34.2° (Epoch: 16 August)

Event Time Altitude Azimuth Distance (km) Brightness Sun altitude
Rises 07:10:28 0° 260° (W) 5,417 13.3 28.6°
Reaches altitude 10° 07:15:28 10° 249° (WSW) 3,825 12.7 29.4°
Maximum altitude 07:22:07 23° 202° (SSW) 2,225 11.9 30.5°
Drops below altitude 10° 07:26:44 10° 151° (SSE) 2,551 12.7 31.3°
Sets 07:29:19 0° 135° (SE) 3,260 13.3 31.7°
